ヴィルト第4彗星

116P/Wild 4 (2022)

English version
Home page
Updated on January 22, 2023

---------------------------------------------------------------------

・ プロフィール

・ 写真集

・ 軌道要素

Epoch 2023 Feb. 25.0 TT = JDT 2460000.5
T 2022 July 16.83411 TT                                 Rudenko
q   2.1968704            (2000.0)            P               Q
n   0.15121195     Peri.  173.26348     -0.96917895     +0.24532800
a   3.4893563      Node    20.97929     -0.22886023     -0.86277111
e   0.3704081      Incl.    3.60338     -0.09118750     -0.44208618
P   6.52
>From 2929 observations 2014 Oct. 31-2022 Aug. 21, mean residual 0".7.

・ 星図

・ 光度変化

        m1 = 3.5 + 5 logΔ + 25.0 log r

---------------------------------------------------------------------

軌道要素はM.P.E.C. 2023-B57に掲載されたものです。
星図はステラナビゲータ Ver.10 (アストロアーツ) で作成したものです。
光度グラフはComet for Windowsで作成したものです。

---------------------------------------------------------------------

Copyright(C) Seiichi Yoshida (comet@aerith.net). All rights reserved.